Year,Month,Day,Hour,Minute,Value (Times are PST for temperature in C)
2014,06,30,00,00,13.00
2014,06,30,00,01,12.90
2014,06,30,00,02,12.90
2014,06,30,00,03,12.90
2014,06,30,00,04,12.90
2014,06,30,00,05,12.90
2014,06,30,00,06,12.90
2014,06,30,00,07,12.90
2014,06,30,00,08,12.90
2014,06,30,00,09,12.90
2014,06,30,00,10,12.90
2014,06,30,00,11,12.90
2014,06,30,00,12,12.90
2014,06,30,00,13,12.90
2014,06,30,00,14,12.90
2014,06,30,00,15,12.90
2014,06,30,00,16,12.90
2014,06,30,00,17,12.90
2014,06,30,00,18,12.90
2014,06,30,00,19,12.90
2014,06,30,00,20,12.90
2014,06,30,00,21,12.90
2014,06,30,00,22,12.90
2014,06,30,00,23,12.90
2014,06,30,00,24,12.90
2014,06,30,00,25,12.90
2014,06,30,00,26,12.80
2014,06,30,00,27,12.80
2014,06,30,00,28,12.80
2014,06,30,00,29,12.80
2014,06,30,00,30,12.80
2014,06,30,00,31,12.80
2014,06,30,00,32,12.80
2014,06,30,00,33,12.80
2014,06,30,00,34,12.80
2014,06,30,00,35,12.80
2014,06,30,00,36,12.80
2014,06,30,00,37,12.70
2014,06,30,00,38,12.70
2014,06,30,00,39,12.70
2014,06,30,00,40,12.70
2014,06,30,00,41,12.70
2014,06,30,00,42,12.70
2014,06,30,00,43,12.70
2014,06,30,00,44,12.70
2014,06,30,00,45,12.70
2014,06,30,00,46,12.70
2014,06,30,00,47,12.70
2014,06,30,00,48,12.70
2014,06,30,00,49,12.70
2014,06,30,00,50,12.70
2014,06,30,00,51,12.70
2014,06,30,00,52,12.70
2014,06,30,00,53,12.70
2014,06,30,00,54,12.70
2014,06,30,00,55,12.70
2014,06,30,00,56,12.60
2014,06,30,00,57,12.60
2014,06,30,00,58,12.60
2014,06,30,00,59,12.60
2014,06,30,01,00,12.60
2014,06,30,01,01,12.60
2014,06,30,01,02,12.60
2014,06,30,01,03,12.60
2014,06,30,01,04,12.60
2014,06,30,01,05,12.60
2014,06,30,01,06,12.60
2014,06,30,01,07,12.60
2014,06,30,01,08,12.60
2014,06,30,01,09,12.60
2014,06,30,01,10,12.60
2014,06,30,01,11,12.60
2014,06,30,01,12,12.60
2014,06,30,01,13,12.60
2014,06,30,01,14,12.60
2014,06,30,01,15,12.60
2014,06,30,01,16,12.60
2014,06,30,01,17,12.60
2014,06,30,01,18,12.60
2014,06,30,01,19,12.60
2014,06,30,01,20,12.60
2014,06,30,01,21,12.60
2014,06,30,01,22,12.60
2014,06,30,01,23,12.60
2014,06,30,01,24,12.60
2014,06,30,01,25,12.60
2014,06,30,01,26,12.60
2014,06,30,01,27,12.60
2014,06,30,01,28,12.60
2014,06,30,01,29,12.60
2014,06,30,01,30,12.60
2014,06,30,01,31,12.60
2014,06,30,01,32,12.60
2014,06,30,01,33,12.60
2014,06,30,01,34,12.60
2014,06,30,01,35,12.60
2014,06,30,01,36,12.60
2014,06,30,01,37,12.60
2014,06,30,01,38,12.60
2014,06,30,01,39,12.60
2014,06,30,01,40,12.60
2014,06,30,01,41,12.50
2014,06,30,01,42,12.50
2014,06,30,01,43,12.50
2014,06,30,01,44,12.50
2014,06,30,01,45,12.40
2014,06,30,01,46,12.40
2014,06,30,01,47,12.40
2014,06,30,01,48,12.40
2014,06,30,01,49,12.40
2014,06,30,01,50,12.30
2014,06,30,01,51,12.30
2014,06,30,01,52,12.30
2014,06,30,01,53,12.30
2014,06,30,01,54,12.30
2014,06,30,01,55,12.30
2014,06,30,01,56,12.30
2014,06,30,01,57,12.30
2014,06,30,01,58,12.30
2014,06,30,01,59,12.30
2014,06,30,02,00,12.20
2014,06,30,02,01,12.20
2014,06,30,02,02,12.20
2014,06,30,02,03,12.20
2014,06,30,02,04,12.20
2014,06,30,02,05,12.20
2014,06,30,02,06,12.20
2014,06,30,02,07,12.20
2014,06,30,02,08,12.20
2014,06,30,02,09,12.20
2014,06,30,02,10,12.20
2014,06,30,02,11,12.20
2014,06,30,02,12,12.20
2014,06,30,02,13,12.20
2014,06,30,02,14,12.20
2014,06,30,02,15,12.30
2014,06,30,02,16,12.30
2014,06,30,02,17,12.30
2014,06,30,02,18,12.20
2014,06,30,02,19,12.20
2014,06,30,02,20,12.20
2014,06,30,02,21,12.20
2014,06,30,02,22,12.20
2014,06,30,02,23,12.20
2014,06,30,02,24,12.20
2014,06,30,02,25,12.20
2014,06,30,02,26,12.20
2014,06,30,02,27,12.20
2014,06,30,02,28,12.20
2014,06,30,02,29,12.20
2014,06,30,02,30,12.20
2014,06,30,02,31,12.20
2014,06,30,02,32,12.20
2014,06,30,02,33,12.20
2014,06,30,02,34,12.10
2014,06,30,02,35,12.10
2014,06,30,02,36,12.10
2014,06,30,02,37,12.10
2014,06,30,02,38,12.00
2014,06,30,02,39,12.00
2014,06,30,02,40,11.90
2014,06,30,02,41,11.90
2014,06,30,02,42,11.90
2014,06,30,02,43,11.90
2014,06,30,02,44,11.80
2014,06,30,02,45,11.80
2014,06,30,02,46,11.80
2014,06,30,02,47,11.80
2014,06,30,02,48,11.70
2014,06,30,02,49,11.70
2014,06,30,02,50,11.70
2014,06,30,02,51,11.70
2014,06,30,02,52,11.60
2014,06,30,02,53,11.60
2014,06,30,02,54,11.60
2014,06,30,02,55,11.60
2014,06,30,02,56,11.60
2014,06,30,02,57,11.50
2014,06,30,02,58,11.50
2014,06,30,02,59,11.40
2014,06,30,03,00,11.40
2014,06,30,03,01,11.40
2014,06,30,03,02,11.40
2014,06,30,03,03,11.40
2014,06,30,03,04,11.30
2014,06,30,03,05,11.30
2014,06,30,03,06,11.30
2014,06,30,03,07,11.30
2014,06,30,03,08,11.30
2014,06,30,03,09,11.30
2014,06,30,03,10,11.30
2014,06,30,03,11,11.30
2014,06,30,03,12,11.40
2014,06,30,03,13,11.40
2014,06,30,03,14,11.40
2014,06,30,03,15,11.40
2014,06,30,03,16,11.40
2014,06,30,03,17,11.40
2014,06,30,03,18,11.40
2014,06,30,03,19,11.40
2014,06,30,03,20,11.40
2014,06,30,03,21,11.40
2014,06,30,03,22,11.40
2014,06,30,03,23,11.40
2014,06,30,03,24,11.40
2014,06,30,03,25,11.40
2014,06,30,03,26,11.40
2014,06,30,03,27,11.40
2014,06,30,03,28,11.40
2014,06,30,03,29,11.40
2014,06,30,03,30,11.40
2014,06,30,03,31,11.40
2014,06,30,03,32,11.40
2014,06,30,03,33,11.40
2014,06,30,03,34,11.40
2014,06,30,03,35,11.40
2014,06,30,03,36,11.40
2014,06,30,03,37,11.40
2014,06,30,03,38,11.40
2014,06,30,03,39,11.40
2014,06,30,03,40,11.30
2014,06,30,03,41,11.30
2014,06,30,03,42,11.30
2014,06,30,03,43,11.30
2014,06,30,03,44,11.30
2014,06,30,03,45,11.30
2014,06,30,03,46,11.30
2014,06,30,03,47,11.30
2014,06,30,03,48,11.30
2014,06,30,03,49,11.40
2014,06,30,03,50,11.40
2014,06,30,03,51,11.30
2014,06,30,03,52,11.30
2014,06,30,03,53,11.30
2014,06,30,03,54,11.30
2014,06,30,03,55,11.30
2014,06,30,03,56,11.30
2014,06,30,03,57,11.30
2014,06,30,03,58,11.30
2014,06,30,03,59,11.20
2014,06,30,04,00,11.20
2014,06,30,04,01,11.20
2014,06,30,04,02,11.20
2014,06,30,04,03,11.10
2014,06,30,04,04,11.10
2014,06,30,04,05,11.10
2014,06,30,04,06,11.10
2014,06,30,04,07,11.10
2014,06,30,04,08,11.10
2014,06,30,04,09,11.10
2014,06,30,04,10,11.10
2014,06,30,04,11,11.10
2014,06,30,04,12,11.10
2014,06,30,04,13,11.10
2014,06,30,04,14,11.10
2014,06,30,04,15,11.00
2014,06,30,04,16,11.00
2014,06,30,04,17,11.00
2014,06,30,04,18,11.00
2014,06,30,04,19,10.90
2014,06,30,04,20,10.90
2014,06,30,04,21,10.90
2014,06,30,04,22,10.90
2014,06,30,04,23,10.90
2014,06,30,04,24,10.90
2014,06,30,04,25,10.90
2014,06,30,04,26,10.90
2014,06,30,04,27,10.80
2014,06,30,04,28,10.80
2014,06,30,04,29,10.80
2014,06,30,04,30,10.80
2014,06,30,04,31,10.80
2014,06,30,04,32,10.80
2014,06,30,04,33,10.80
2014,06,30,04,34,10.80
2014,06,30,04,35,10.80
2014,06,30,04,36,10.80
2014,06,30,04,37,10.70
2014,06,30,04,38,10.70
2014,06,30,04,39,10.70
2014,06,30,04,40,10.70
2014,06,30,04,41,10.60
2014,06,30,04,42,10.70
2014,06,30,04,43,10.70
2014,06,30,04,44,10.70
2014,06,30,04,45,10.80
2014,06,30,04,46,10.80
2014,06,30,04,47,10.80
2014,06,30,04,48,10.80
2014,06,30,04,49,10.80
2014,06,30,04,50,10.80
2014,06,30,04,51,10.80
2014,06,30,04,52,10.80
2014,06,30,04,53,10.90
2014,06,30,04,54,10.90
2014,06,30,04,55,10.90
2014,06,30,04,56,10.90
2014,06,30,04,57,10.90
2014,06,30,04,58,10.90
2014,06,30,04,59,10.90
2014,06,30,05,00,10.90
2014,06,30,05,01,10.90
2014,06,30,05,02,10.90
2014,06,30,05,03,10.90
2014,06,30,05,04,10.90
2014,06,30,05,05,10.90
2014,06,30,05,06,10.90
2014,06,30,05,07,10.90
2014,06,30,05,08,10.90
2014,06,30,05,09,10.80
2014,06,30,05,10,10.90
2014,06,30,05,11,10.90
2014,06,30,05,12,10.80
2014,06,30,05,13,10.80
2014,06,30,05,14,10.80
2014,06,30,05,15,10.80
2014,06,30,05,16,10.80
2014,06,30,05,17,10.80
2014,06,30,05,18,10.80
2014,06,30,05,19,10.80
2014,06,30,05,20,10.70
2014,06,30,05,21,10.70
2014,06,30,05,22,10.70
2014,06,30,05,23,10.70
2014,06,30,05,24,10.70
2014,06,30,05,25,10.70
2014,06,30,05,26,10.70
2014,06,30,05,27,10.70
2014,06,30,05,28,10.70
2014,06,30,05,29,10.60
2014,06,30,05,30,10.60
2014,06,30,05,31,10.60
2014,06,30,05,32,10.60
2014,06,30,05,33,10.60
2014,06,30,05,34,10.50
2014,06,30,05,35,10.50
2014,06,30,05,36,10.50
2014,06,30,05,37,10.50
2014,06,30,05,38,10.60
2014,06,30,05,39,10.60
2014,06,30,05,40,10.60
2014,06,30,05,41,10.60
2014,06,30,05,42,10.60
2014,06,30,05,43,10.60
2014,06,30,05,44,10.60
2014,06,30,05,45,10.60
2014,06,30,05,46,10.60
2014,06,30,05,47,10.60
2014,06,30,05,48,10.60
2014,06,30,05,49,10.60
2014,06,30,05,50,10.60
2014,06,30,05,51,10.60
2014,06,30,05,52,10.60
2014,06,30,05,53,10.60
2014,06,30,05,54,10.60
2014,06,30,05,55,10.60
2014,06,30,05,56,10.60
2014,06,30,05,57,10.60
2014,06,30,05,58,10.60
2014,06,30,05,59,10.70
2014,06,30,06,00,10.70
2014,06,30,06,01,10.70
2014,06,30,06,02,10.70
2014,06,30,06,03,10.70
2014,06,30,06,04,10.70
2014,06,30,06,05,10.70
2014,06,30,06,06,10.70
2014,06,30,06,07,10.70
2014,06,30,06,08,10.70
2014,06,30,06,09,10.70
2014,06,30,06,10,10.70
2014,06,30,06,11,10.70
2014,06,30,06,12,10.70
2014,06,30,06,13,10.70
2014,06,30,06,14,10.70
2014,06,30,06,15,10.70
2014,06,30,06,16,10.70
2014,06,30,06,17,10.70
2014,06,30,06,18,10.70
2014,06,30,06,19,10.70
2014,06,30,06,20,10.70
2014,06,30,06,21,10.70
2014,06,30,06,22,10.70
2014,06,30,06,23,10.70
2014,06,30,06,24,10.70
2014,06,30,06,25,10.70
2014,06,30,06,26,10.70
2014,06,30,06,27,10.70
2014,06,30,06,28,10.80
2014,06,30,06,29,10.80
2014,06,30,06,30,10.80
2014,06,30,06,31,10.80
2014,06,30,06,32,10.80
2014,06,30,06,33,10.80
2014,06,30,06,34,10.80
2014,06,30,06,35,10.80
2014,06,30,06,36,10.80
2014,06,30,06,37,10.90
2014,06,30,06,38,10.90
2014,06,30,06,39,10.90
2014,06,30,06,40,11.00
2014,06,30,06,41,11.00
2014,06,30,06,42,11.10
2014,06,30,06,43,11.10
2014,06,30,06,44,11.10
2014,06,30,06,45,11.10
2014,06,30,06,46,11.10
2014,06,30,06,47,11.10
2014,06,30,06,48,11.10
2014,06,30,06,49,11.10
2014,06,30,06,50,11.10
2014,06,30,06,51,11.10
2014,06,30,06,52,11.10
2014,06,30,06,53,11.10
2014,06,30,06,54,11.10
2014,06,30,06,55,11.10
2014,06,30,06,56,11.10
2014,06,30,06,57,11.10
2014,06,30,06,58,11.10
2014,06,30,06,59,11.10
2014,06,30,07,00,11.10
2014,06,30,07,01,11.10
2014,06,30,07,02,11.10
2014,06,30,07,03,11.10
2014,06,30,07,04,11.20
2014,06,30,07,05,11.20
2014,06,30,07,06,11.20
2014,06,30,07,07,11.20
2014,06,30,07,08,11.20
2014,06,30,07,09,11.20
2014,06,30,07,10,11.30
2014,06,30,07,11,11.30
2014,06,30,07,12,11.30
2014,06,30,07,13,11.30
2014,06,30,07,14,11.30
2014,06,30,07,15,11.30
2014,06,30,07,16,11.40
2014,06,30,07,17,11.40
2014,06,30,07,18,11.40
2014,06,30,07,19,11.40
2014,06,30,07,20,11.50
2014,06,30,07,21,11.50
2014,06,30,07,22,11.50
2014,06,30,07,23,11.60
2014,06,30,07,24,11.60
2014,06,30,07,25,11.60
2014,06,30,07,26,11.60
2014,06,30,07,27,11.70
2014,06,30,07,28,11.70
2014,06,30,07,29,11.70
2014,06,30,07,30,11.80
2014,06,30,07,31,11.80
2014,06,30,07,32,11.80
2014,06,30,07,33,11.90
2014,06,30,07,34,11.90
2014,06,30,07,35,12.00
2014,06,30,07,36,12.10
2014,06,30,07,37,12.10
2014,06,30,07,38,12.10
2014,06,30,07,39,12.10
2014,06,30,07,40,12.20
2014,06,30,07,41,12.20
2014,06,30,07,42,12.30
2014,06,30,07,43,12.30
2014,06,30,07,44,12.30
2014,06,30,07,45,12.40
2014,06,30,07,46,12.40
2014,06,30,07,47,12.40
2014,06,30,07,48,12.50
2014,06,30,07,49,12.50
2014,06,30,07,50,12.60
2014,06,30,07,51,12.60
2014,06,30,07,52,12.70
2014,06,30,07,53,12.70
2014,06,30,07,54,12.70
2014,06,30,07,55,12.80
2014,06,30,07,56,12.80
2014,06,30,07,57,12.90
2014,06,30,07,58,12.90
2014,06,30,07,59,13.00
2014,06,30,08,00,13.00
2014,06,30,08,01,13.10
2014,06,30,08,02,13.10
2014,06,30,08,03,13.20
2014,06,30,08,04,13.20
2014,06,30,08,05,13.20
2014,06,30,08,06,13.30
2014,06,30,08,07,13.30
2014,06,30,08,08,13.40
2014,06,30,08,09,13.40
2014,06,30,08,10,13.40
2014,06,30,08,11,13.50
2014,06,30,08,12,13.50
2014,06,30,08,13,13.60
2014,06,30,08,14,13.60
2014,06,30,08,15,13.60
2014,06,30,08,16,13.70
2014,06,30,08,17,13.70
2014,06,30,08,18,13.80
2014,06,30,08,19,13.80
2014,06,30,08,20,13.90
2014,06,30,08,21,13.90
2014,06,30,08,22,14.00
2014,06,30,08,23,14.10
2014,06,30,08,24,14.20
2014,06,30,08,25,14.20
2014,06,30,08,26,14.30
2014,06,30,08,27,14.30
2014,06,30,08,28,14.40
2014,06,30,08,29,14.50
2014,06,30,08,30,14.50
2014,06,30,08,31,14.60
2014,06,30,08,32,14.60
2014,06,30,08,33,14.60
2014,06,30,08,34,14.70
2014,06,30,08,35,14.70
2014,06,30,08,36,14.70
2014,06,30,08,37,14.80
2014,06,30,08,38,14.90
2014,06,30,08,39,15.00
2014,06,30,08,40,15.00
2014,06,30,08,41,15.00
2014,06,30,08,42,15.00
2014,06,30,08,43,15.00
2014,06,30,08,44,15.20
2014,06,30,08,45,15.30
2014,06,30,08,46,15.30
2014,06,30,08,47,15.40
2014,06,30,08,48,15.50
2014,06,30,08,49,15.60
2014,06,30,08,50,15.60
2014,06,30,08,51,15.70
2014,06,30,08,52,15.70
2014,06,30,08,53,15.70
2014,06,30,08,54,15.70
2014,06,30,08,55,15.70
2014,06,30,08,56,15.70
2014,06,30,08,57,15.70
2014,06,30,08,58,15.60
2014,06,30,08,59,15.60
2014,06,30,09,00,15.60
2014,06,30,09,01,15.60
2014,06,30,09,02,15.70
2014,06,30,09,03,15.70
2014,06,30,09,04,15.70
2014,06,30,09,05,15.70
2014,06,30,09,06,15.70
2014,06,30,09,07,15.70
2014,06,30,09,08,15.70
2014,06,30,09,09,15.80
2014,06,30,09,10,15.80
2014,06,30,09,11,15.80
2014,06,30,09,12,15.90
2014,06,30,09,13,15.90
2014,06,30,09,14,16.00
2014,06,30,09,15,16.00
2014,06,30,09,16,16.10
2014,06,30,09,17,16.10
2014,06,30,09,18,16.20
2014,06,30,09,19,16.20
2014,06,30,09,20,16.30
2014,06,30,09,21,16.30
2014,06,30,09,22,16.40
2014,06,30,09,23,16.50
2014,06,30,09,24,16.50
2014,06,30,09,25,16.60
2014,06,30,09,26,16.60
2014,06,30,09,27,16.60
2014,06,30,09,28,16.60
2014,06,30,09,29,16.60
2014,06,30,09,30,16.60
2014,06,30,09,31,16.60
2014,06,30,09,32,16.60
2014,06,30,09,33,16.60
2014,06,30,09,34,16.60
2014,06,30,09,35,16.60
2014,06,30,09,36,16.70
2014,06,30,09,37,16.70
2014,06,30,09,38,16.70
2014,06,30,09,39,16.70
2014,06,30,09,40,16.80
2014,06,30,09,41,16.80
2014,06,30,09,42,16.90
2014,06,30,09,43,16.90
2014,06,30,09,44,17.00
2014,06,30,09,45,17.00
2014,06,30,09,46,17.00
2014,06,30,09,47,17.10
2014,06,30,09,48,17.10
2014,06,30,09,49,17.10
2014,06,30,09,50,17.20
2014,06,30,09,51,17.20
2014,06,30,09,52,17.30
2014,06,30,09,53,17.30
2014,06,30,09,54,17.30
2014,06,30,09,55,17.40
2014,06,30,09,56,17.40
2014,06,30,09,57,17.50
2014,06,30,09,58,17.60
2014,06,30,09,59,17.70
2014,06,30,10,00,17.80
2014,06,30,10,01,17.90
2014,06,30,10,02,18.00
2014,06,30,10,03,18.10
2014,06,30,10,04,18.10
2014,06,30,10,05,18.20
2014,06,30,10,06,18.30
2014,06,30,10,07,18.40
2014,06,30,10,08,18.40
2014,06,30,10,09,18.50
2014,06,30,10,10,18.60
2014,06,30,10,11,18.70
2014,06,30,10,12,18.80
2014,06,30,10,13,18.90
2014,06,30,10,14,18.90
2014,06,30,10,15,19.00
2014,06,30,10,16,19.10
2014,06,30,10,17,19.20
2014,06,30,10,18,19.20
2014,06,30,10,19,19.30
2014,06,30,10,20,19.30
2014,06,30,10,21,19.30
2014,06,30,10,22,19.30
2014,06,30,10,23,19.30
2014,06,30,10,24,19.20
2014,06,30,10,25,19.20
2014,06,30,10,26,19.20
2014,06,30,10,27,19.20
2014,06,30,10,28,19.20
2014,06,30,10,29,19.20
2014,06,30,10,30,19.20
2014,06,30,10,31,19.30
2014,06,30,10,32,19.30
2014,06,30,10,33,19.40
2014,06,30,10,34,19.50
2014,06,30,10,35,19.50
2014,06,30,10,36,19.60
2014,06,30,10,37,19.70
2014,06,30,10,38,19.80
2014,06,30,10,39,19.80
2014,06,30,10,40,19.80
2014,06,30,10,41,19.70
2014,06,30,10,42,19.60
2014,06,30,10,43,19.60
2014,06,30,10,44,19.60
2014,06,30,10,45,19.60
2014,06,30,10,46,19.60
2014,06,30,10,47,19.60
2014,06,30,10,48,19.60
2014,06,30,10,49,19.60
2014,06,30,10,50,19.60
2014,06,30,10,51,19.60
2014,06,30,10,52,19.70
2014,06,30,10,53,19.80
2014,06,30,10,54,19.90
2014,06,30,10,55,20.00
2014,06,30,10,56,20.00
2014,06,30,10,57,20.20
2014,06,30,10,58,20.30
2014,06,30,10,59,20.30
2014,06,30,11,00,20.40
2014,06,30,11,01,20.50
2014,06,30,11,02,20.50
2014,06,30,11,03,20.60
2014,06,30,11,04,20.60
2014,06,30,11,05,20.50
2014,06,30,11,06,20.40
2014,06,30,11,07,20.30
2014,06,30,11,08,20.30
2014,06,30,11,09,20.30
2014,06,30,11,10,20.30
2014,06,30,11,11,20.30
2014,06,30,11,12,20.30
2014,06,30,11,13,20.20
2014,06,30,11,14,20.20
2014,06,30,11,15,20.10
2014,06,30,11,16,20.00
2014,06,30,11,17,19.90
2014,06,30,11,18,19.90
2014,06,30,11,19,19.80
2014,06,30,11,20,19.80
2014,06,30,11,21,19.80
2014,06,30,11,22,19.80
2014,06,30,11,23,19.80
2014,06,30,11,24,19.80
2014,06,30,11,25,19.80
2014,06,30,11,26,19.90
2014,06,30,11,27,19.90
2014,06,30,11,28,19.80
2014,06,30,11,29,19.80
2014,06,30,11,30,19.70
2014,06,30,11,31,19.70
2014,06,30,11,32,19.70
2014,06,30,11,33,19.70
2014,06,30,11,34,19.80
2014,06,30,11,35,19.80
2014,06,30,11,36,19.90
2014,06,30,11,37,20.00
2014,06,30,11,38,20.00
2014,06,30,11,39,20.10
2014,06,30,11,40,20.20
2014,06,30,11,41,20.30
2014,06,30,11,42,20.40
2014,06,30,11,43,20.50
2014,06,30,11,44,20.60
2014,06,30,11,45,20.50
2014,06,30,11,46,20.40
2014,06,30,11,47,20.40
2014,06,30,11,48,20.30
2014,06,30,11,49,20.30
2014,06,30,11,50,20.20
2014,06,30,11,51,20.20
2014,06,30,11,52,20.20
2014,06,30,11,53,20.10
2014,06,30,11,54,20.10
2014,06,30,11,55,20.10
2014,06,30,11,56,20.00
2014,06,30,11,57,20.00
2014,06,30,11,58,20.00
2014,06,30,11,59,20.00
2014,06,30,12,00,20.10
2014,06,30,12,01,20.20
2014,06,30,12,02,20.20
2014,06,30,12,03,20.40
2014,06,30,12,04,20.50
2014,06,30,12,05,20.60
2014,06,30,12,06,20.60
2014,06,30,12,07,20.60
2014,06,30,12,08,20.50
2014,06,30,12,09,20.50
2014,06,30,12,10,20.60
2014,06,30,12,11,20.60
2014,06,30,12,12,20.60
2014,06,30,12,13,20.60
2014,06,30,12,14,20.60
2014,06,30,12,15,20.60
2014,06,30,12,16,20.60
2014,06,30,12,17,20.70
2014,06,30,12,18,20.80
2014,06,30,12,19,20.90
2014,06,30,12,20,21.10
2014,06,30,12,21,21.20
2014,06,30,12,22,21.30
2014,06,30,12,23,21.40
2014,06,30,12,24,21.40
2014,06,30,12,25,21.50
2014,06,30,12,26,21.50
2014,06,30,12,27,21.60
2014,06,30,12,28,21.60
2014,06,30,12,29,21.70
2014,06,30,12,30,21.70
2014,06,30,12,31,21.70
2014,06,30,12,32,21.60
2014,06,30,12,33,21.70
2014,06,30,12,34,21.70
2014,06,30,12,35,21.70
2014,06,30,12,36,21.80
2014,06,30,12,37,21.80
2014,06,30,12,38,21.90
2014,06,30,12,39,22.00
2014,06,30,12,40,22.00
2014,06,30,12,41,22.10
2014,06,30,12,42,22.20
2014,06,30,12,43,22.20
2014,06,30,12,44,22.30
2014,06,30,12,45,22.20
2014,06,30,12,46,22.10
2014,06,30,12,47,22.00
2014,06,30,12,48,21.90
2014,06,30,12,49,21.90
2014,06,30,12,50,21.90
2014,06,30,12,51,21.90
2014,06,30,12,52,21.90
2014,06,30,12,53,22.00
2014,06,30,12,54,22.00
2014,06,30,12,55,22.00
2014,06,30,12,56,22.00
2014,06,30,12,57,22.00
2014,06,30,12,58,22.10
2014,06,30,12,59,22.10
2014,06,30,13,00,22.10
2014,06,30,13,01,22.10
2014,06,30,13,02,22.20
2014,06,30,13,03,22.20
2014,06,30,13,04,22.30
2014,06,30,13,05,22.30
2014,06,30,13,06,22.30
2014,06,30,13,07,22.40
2014,06,30,13,08,22.50
2014,06,30,13,09,22.60
2014,06,30,13,10,22.60
2014,06,30,13,11,22.50
2014,06,30,13,12,22.40
2014,06,30,13,13,22.30
2014,06,30,13,14,22.20
2014,06,30,13,15,22.10
2014,06,30,13,16,22.00
2014,06,30,13,17,22.00
2014,06,30,13,18,21.90
2014,06,30,13,19,21.80
2014,06,30,13,20,21.90
2014,06,30,13,21,21.90
2014,06,30,13,22,22.00
2014,06,30,13,23,22.10
2014,06,30,13,24,22.20
2014,06,30,13,25,22.30
2014,06,30,13,26,22.40
2014,06,30,13,27,22.50
2014,06,30,13,28,22.50
2014,06,30,13,29,22.60
2014,06,30,13,30,22.60
2014,06,30,13,31,22.70
2014,06,30,13,32,22.70
2014,06,30,13,33,22.70
2014,06,30,13,34,22.70
2014,06,30,13,35,22.70
2014,06,30,13,36,22.80
2014,06,30,13,37,22.80
2014,06,30,13,38,22.80
2014,06,30,13,39,22.90
2014,06,30,13,40,22.90
2014,06,30,13,41,23.10
2014,06,30,13,42,23.20
2014,06,30,13,43,23.30
2014,06,30,13,44,23.40
2014,06,30,13,45,23.50
2014,06,30,13,46,23.60
2014,06,30,13,47,23.50
2014,06,30,13,48,23.30
2014,06,30,13,49,23.10
2014,06,30,13,50,22.90
2014,06,30,13,51,22.70
2014,06,30,13,52,22.60
2014,06,30,13,53,22.50
2014,06,30,13,54,22.50
2014,06,30,13,55,22.40
2014,06,30,13,56,22.40
2014,06,30,13,57,22.40
2014,06,30,13,58,22.40
2014,06,30,13,59,22.50
2014,06,30,14,00,22.50
2014,06,30,14,01,22.50
2014,06,30,14,02,22.60
2014,06,30,14,03,22.60
2014,06,30,14,04,22.60
2014,06,30,14,05,22.60
2014,06,30,14,06,22.60
2014,06,30,14,07,22.50
2014,06,30,14,08,22.40
2014,06,30,14,09,22.40
2014,06,30,14,10,22.40
2014,06,30,14,11,22.30
2014,06,30,14,12,22.30
2014,06,30,14,13,22.30
2014,06,30,14,14,22.30
2014,06,30,14,15,22.40
2014,06,30,14,16,22.40
2014,06,30,14,17,22.50
2014,06,30,14,18,22.60
2014,06,30,14,19,22.60
2014,06,30,14,20,22.60
2014,06,30,14,21,22.60
2014,06,30,14,22,22.60
2014,06,30,14,23,22.60
2014,06,30,14,24,22.70
2014,06,30,14,25,22.70
2014,06,30,14,26,22.80
2014,06,30,14,27,22.80
2014,06,30,14,28,22.90
2014,06,30,14,29,22.90
2014,06,30,14,30,22.90
2014,06,30,14,31,22.80
2014,06,30,14,32,22.80
2014,06,30,14,33,22.80
2014,06,30,14,34,22.90
2014,06,30,14,35,23.00
2014,06,30,14,36,23.00
2014,06,30,14,37,22.90
2014,06,30,14,38,22.90
2014,06,30,14,39,23.00
2014,06,30,14,40,23.10
2014,06,30,14,41,23.20
2014,06,30,14,42,23.30
2014,06,30,14,43,23.40
2014,06,30,14,44,23.50
2014,06,30,14,45,23.70
2014,06,30,14,46,23.80
2014,06,30,14,47,24.00
2014,06,30,14,48,24.10
2014,06,30,14,49,24.10
2014,06,30,14,50,24.10
2014,06,30,14,51,24.10
2014,06,30,14,52,24.10
2014,06,30,14,53,24.20
2014,06,30,14,54,24.20
2014,06,30,14,55,24.30
2014,06,30,14,56,24.40
2014,06,30,14,57,24.50
2014,06,30,14,58,24.60
2014,06,30,14,59,24.60
2014,06,30,15,00,24.60
2014,06,30,15,01,24.70
2014,06,30,15,02,24.70
2014,06,30,15,03,24.70
2014,06,30,15,04,24.70
2014,06,30,15,05,24.70
2014,06,30,15,06,24.80
2014,06,30,15,07,24.80
2014,06,30,15,08,24.80
2014,06,30,15,09,24.80
2014,06,30,15,10,24.80
2014,06,30,15,11,24.60
2014,06,30,15,12,24.50
2014,06,30,15,13,24.40
2014,06,30,15,14,24.20
2014,06,30,15,15,24.10
2014,06,30,15,16,24.00
2014,06,30,15,17,24.00
2014,06,30,15,18,23.90
2014,06,30,15,19,23.90
2014,06,30,15,20,24.00
2014,06,30,15,21,24.10
2014,06,30,15,22,24.20
2014,06,30,15,23,24.30
2014,06,30,15,24,24.50
2014,06,30,15,25,24.60
2014,06,30,15,26,24.80
2014,06,30,15,27,24.90
2014,06,30,15,28,25.00
2014,06,30,15,29,25.10
2014,06,30,15,30,25.10
2014,06,30,15,31,25.10
2014,06,30,15,32,25.20
2014,06,30,15,33,25.20
2014,06,30,15,34,25.30
2014,06,30,15,35,25.30
2014,06,30,15,36,25.40
2014,06,30,15,37,25.50
2014,06,30,15,38,25.60
2014,06,30,15,39,25.70
2014,06,30,15,40,25.80
2014,06,30,15,41,25.80
2014,06,30,15,42,25.90
2014,06,30,15,43,25.80
2014,06,30,15,44,25.80
2014,06,30,15,45,25.60
2014,06,30,15,46,25.50
2014,06,30,15,47,25.30
2014,06,30,15,48,25.20
2014,06,30,15,49,25.10
2014,06,30,15,50,25.00
2014,06,30,15,51,24.90
2014,06,30,15,52,24.90
2014,06,30,15,53,24.80
2014,06,30,15,54,24.90
2014,06,30,15,55,24.90
2014,06,30,15,56,25.00
2014,06,30,15,57,25.10
2014,06,30,15,58,25.20
2014,06,30,15,59,25.30
2014,06,30,16,00,25.40
2014,06,30,16,01,25.50
2014,06,30,16,02,25.60
2014,06,30,16,03,25.50
2014,06,30,16,04,25.40
2014,06,30,16,05,25.30
2014,06,30,16,06,25.20
2014,06,30,16,07,25.20
2014,06,30,16,08,25.20
2014,06,30,16,09,25.20
2014,06,30,16,10,25.20
2014,06,30,16,11,25.20
2014,06,30,16,12,25.30
2014,06,30,16,13,25.30
2014,06,30,16,14,25.40
2014,06,30,16,15,25.50
2014,06,30,16,16,25.60
2014,06,30,16,17,25.60
2014,06,30,16,18,25.70
2014,06,30,16,19,25.70
2014,06,30,16,20,25.90
2014,06,30,16,21,25.90
2014,06,30,16,22,26.00
2014,06,30,16,23,26.10
2014,06,30,16,24,26.10
2014,06,30,16,25,26.10
2014,06,30,16,26,26.20
2014,06,30,16,27,26.20
2014,06,30,16,28,26.10
2014,06,30,16,29,26.00
2014,06,30,16,30,25.90
2014,06,30,16,31,25.90
2014,06,30,16,32,25.90
2014,06,30,16,33,25.80
2014,06,30,16,34,25.70
2014,06,30,16,35,25.70
2014,06,30,16,36,25.70
2014,06,30,16,37,25.70
2014,06,30,16,38,25.70
2014,06,30,16,39,25.70
2014,06,30,16,40,25.70
2014,06,30,16,41,25.70
2014,06,30,16,42,25.70
2014,06,30,16,43,25.70
2014,06,30,16,44,25.80
2014,06,30,16,45,25.80
2014,06,30,16,46,25.80
2014,06,30,16,47,25.70
2014,06,30,16,48,25.70
2014,06,30,16,49,25.70
2014,06,30,16,50,25.70
2014,06,30,16,51,25.60
2014,06,30,16,52,25.60
2014,06,30,16,53,25.60
2014,06,30,16,54,25.60
2014,06,30,16,55,25.60
2014,06,30,16,56,25.60
2014,06,30,16,57,25.60
2014,06,30,16,58,25.70
2014,06,30,16,59,25.70
2014,06,30,17,00,25.70
2014,06,30,17,01,25.70
2014,06,30,17,02,25.70
2014,06,30,17,03,25.60
2014,06,30,17,04,25.60
2014,06,30,17,05,25.60
2014,06,30,17,06,25.50
2014,06,30,17,07,25.50
2014,06,30,17,08,25.50
2014,06,30,17,09,25.50
2014,06,30,17,10,25.50
2014,06,30,17,11,25.40
2014,06,30,17,12,25.50
2014,06,30,17,13,25.50
2014,06,30,17,14,25.60
2014,06,30,17,15,25.70
2014,06,30,17,16,25.70
2014,06,30,17,17,25.80
2014,06,30,17,18,25.80
2014,06,30,17,19,25.90